Presure
305 296 317 313 309 324 351 496 492 540 440 361 342 334 334 211 318 297 267 252 260 254 278 272 264 258 257 253 249 246 244 249 239 241 240 239 235 232 230 228 226 226 222 224
293 300 317 293 306 323 346 502 495 533 385 351 342 329 330 325 304 274 254 253 242 273 275 261 257 254 246 240 241 245 244 245 241 242 240 239 235 231 231 235 237 243 244 243
298 304 308 313 310 320 336 501 497 377 373 362 339 327 347 314 278 254 257 252 271 275 260 251 246 239 240 236 234 232 231 231 235 237 238 239 241 241 237 226 218 227 263 261
304 301 318 309 308 336 327 501 410 349 335 365 348 333 310 267 258 256 245 264 276 264 262 256 248 245 238 237 241 242 240 240 242 237 232 225 256 265 272 263 261 245 238 234
304 308 298 310 306 348 320 510 384 355 354 352 354 342 280 258 241 249 245 274 267 255 252 246 244 232 235 237 239 242 240 227 223 217 273 272 264 250 244 236 228 228 221 257
307 295 298 287 311 338 315 509 372 364 348 344 340 312 261 252 251 241 240 272 270 261 252 248 242 236 235 234 235 225 235 276 277 264 257 229 236 222 218 222 209 253 248 251
305 305 301 293 307 325 311 422 391 358 344 355 344 283 265 258 248 247 240 250 263 259 247 242 242 242 238 233 225 270 266 262 254 242 229 218 218 218 217 227 247 248 247 249
308 314 300 286 305 312 305 415 389 360 336 351 321 272 265 254 244 242 240 237 263 253 251 246 242 236 234 224 218 251 224 227 218 216 211 212 219 221 238 235 240 239 231 239
297 310 285 301 302 306 305 422 379 360 346 344 300 288 267 229 243 244 235 198 237 262 248 253 249 236 231 220 214 215 214 209 212 217 211 218 216 209 236 241 238 202 235 226
302 296 306 305 309 292 299 376 363 370 350 332 338 281 272 232 196 242 244 242 235 256 258 252 254 231 226 221 218 213 212 212 213 215 217 214 222 217 224 220 234 227 222 219
313 295 284 292 330 289 293 350 354 355 358 349 308 289 272 266 249 251 245 245 243 238 243 259 255 246 227 223 220 216 215 213 211 216 215 218 217 211 227 228 231 224 225 228
299 300 303 303 307 305 283 345 338 327 329 334 325 294 286 269 265 253 254 251 246 240 239 232 261 251 233 223 213 215 210 218 217 218 217 210 218 214 225 234 231 224 227 225
301 298 304 306 311 315 280 350 332 344 329 323 317 303 277 279 265 261 251 255 253 251 241 239 242 256 259 238 228 223 221 217 224 217 206 214 220 196 222 242 235 208 225 226
296 305 308 315 302 296 382 347 325 316 317 325 320 319 320 289 283 271 263 254 254 252 251 240 241 238 242 254 257 246 222 220 220 216 188 219 216 222 230 236 223 213 223 232
308 312 310 326 316 350 364 330 322 335 320 312 304 313 318 316 321 326 323 274 261 253 252 250 238 235 236 236 242 248 247 242 231 232 209 220 219 236 241 233 192 223 239 231
311 289 329 313 296 390 350 326 315 319 304 308 301 308 311 313 318 321 324 323 329 272 264 261 255 239 234 238 234 220 232 224 179 228 222 230 222 222 235 222 223 233 238 227
315 296 320 310 395 363 336 323 328 302 291 307 313 302 304 295 292 289 291 296 302 308 312 302 272 250 247 246 234 228 213 168 223 225 229 223 237 195 221 223 226 237 223 246
313 331 311 401 370 341 324 306 324 307 312 311 291 280 279 277 277 278 279 279 281 286 291 299 309 318 295 253 229 222 175 209 227 238 221 261 251 235 224 222 224 243 223 230
298 322 310 381 353 339 324 328 311 322 306 280 275 274 265 263 259 257 295 288 291 292 295 301 309 289 305 331 283 201 177 228 234 214 250 257 188 216 230 227 243 222 250 226
293 308 305 362 344 341 333 310 316 300 276 269 266 261 249 245 247 277 278 274 276 281 296 310 335 277 294 303 310 191 180 234 233 184 260 245 208 217 220 235 225 223 244 236
316 296 293 356 347 326 321 313 304 278 272 267 257 249 243 296 272 267 267 265 273 278 281 292 320 338 292 299 284 187 272 261 250 253 239 221 212 219 232 234 227 230 238 212
295 288 291 344 348 327 313 317 295 275 268 261 251 246 274 271 271 263 261 258 271 268 269 269 279 289 242 196 282 260 243 230 247 252 239 229 211 224 239 229 227 224 220 219
298 282 293 297 329 323 314 309 293 273 261 256 247 239 296 261 260 258 252 266 265 263 251 262 251 252 286 254 239 232 243 249 247 209 208 220 232 230 233 232 213 217 238 236
285 274 294 319 320 327 310 311 298 275 258 253 248 241 240 234 248 254 267 257 256 262 251 238 246 221 250 233 236 245 241 226 242 235 230 225 225 220 241 230 216 229 230 225
285 269 291 284 316 311 310 314 293 284 263 247 248 244 238 236 246 270 239 226 225 244 257 255 240 246 242 245 237 232 238 238 241 240 224 224 224 219 201 219 223 233 210 192
287 268 295 285 272 314 317 302 311 291 279 245 245 242 240 234 234 228 234 242 233 229 240 234 254 220 243 236 238 245 212 226 223 210 202 223 215 238 211 224 213 211 216 233
288 280 265 287 278 267 271 323 324 308 294 273 251 242 239 234 231 232 228 226 227 239 234 232 231 223 217 222 224 215 217 214 212 204 236 241 248 204 201 202 202 204 226 229
Wind_Speed
87 89 92 87 87 91 87 35 27 12 50 51 45 47 43 7 53 52 45 41 38 37 36 41 39 37 34 32 32 33 33 35 36 35 37 39 42 43 46 49 51 55 57 61
89 86 87 83 84 86 82 27 23 13 53 47 47 46 46 49 50 46 43 37 34 30 39 36 31 31 29 29 30 31 31 31 31 33 37 40 42 42 44 48 51 56 53 60
82 83 83 81 81 82 76 24 16 30 52 45 49 41 42 48 45 38 39 35 35 36 39 37 35 32 31 31 29 27 29 28 28 29 30 32 35 37 37 41 43 42 31 38
78 79 83 77 77 80 71 18 20 5 2 42 50 45 30 40 37 36 33 31 38 37 37 34 31 30 29 27 26 28 27 25 25 26 26 29 26 24 22 26 22 28 26 36
73 76 74 74 73 76 65 11 42 14 30 28 44 42 44 37 27 32 29 33 35 35 35 33 34 32 29 26 25 23 21 22 24 25 22 23 23 23 23 21 26 25 29 18
70 71 70 72 71 70 62 20 28 30 17 24 35 38 27 28 33 29 29 32 36 35 34 35 33 31 30 27 24 22 22 22 24 27 27 23 23 20 24 24 30 17 13 17
65 66 66 67 67 66 59 33 44 27 17 33 32 37 29 28 29 31 29 28 32 34 32 32 31 29 27 26 24 19 23 27 29 25 22 21 22 21 20 14 12 11 12 12
62 64 62 64 63 60 53 33 40 38 11 29 34 27 31 34 33 31 30 29 32 32 33 33 33 32 30 29 27 25 24 21 21 21 22 23 17 14 11 7 7 10 14 9
56 59 57 60 60 57 51 30 34 34 20 23 38 39 35 25 30 33 29 13 30 32 31 32 34 34 33 32 29 26 25 24 21 19 22 17 20 23 5 7 11 11 10 13
53 54 56 56 56 52 48 1 13 39 29 26 30 38 37 25 17 31 33 32 31 28 31 32 35 35 33 31 29 27 27 25 23 21 18 18 11 13 9 10 11 12 16 17
48 50 52 52 52 47 45 5 10 15 18 24 31 39 40 40 35 37 35 34 34 32 29 30 32 35 34 31 31 29 28 27 26 22 19 15 14 17 12 12 15 15 19 15
46 46 49 47 46 43 41 13 17 18 18 20 26 40 43 43 45 37 36 36 35 33 31 31 31 34 33 33 31 30 30 26 24 21 21 20 15 16 14 17 15 14 13 14
45 43 44 44 45 40 39 22 20 20 24 24 27 32 37 42 43 41 34 36 34 35 32 31 29 28 32 34 32 32 30 28 25 24 24 21 17 15 15 20 19 11 17 13
42 40 40 44 40 37 32 25 22 23 23 22 23 24 26 31 44 44 43 35 35 35 36 33 32 30 29 28 30 34 32 29 26 24 16 21 19 20 16 19 14 17 17 15
38 39 37 43 38 15 34 25 23 26 25 25 23 20 21 22 22 22 25 45 40 36 38 38 34 32 32 30 30 28 26 26 26 26 22 22 22 21 21 17 11 18 17 15
37 39 42 35 33 37 34 29 26 29 21 23 22 22 20 18 14 12 11 14 15 42 40 41 40 34 34 36 34 30 28 29 16 25 24 24 22 21 21 19 21 15 14 15
33 32 34 31 35 37 32 29 26 22 16 22 23 19 18 19 18 17 17 17 16 17 22 33 40 38 39 41 33 31 33 13 29 28 25 24 23 15 19 21 17 12 16 12
30 33 27 39 37 28 29 22 26 24 24 28 27 25 22 19 16 15 14 13 15 17 20 22 23 26 40 39 35 38 16 27 31 29 23 23 27 25 23 18 15 13 17 13
26 26 22 38 35 33 30 30 27 27 31 29 25 22 19 16 15 16 13 12 8 7 7 10 17 27 26 26 39 25 18 34 31 20 26 29 16 16 20 21 17 17 15 15
25 20 17 35 30 29 31 27 30 34 29 26 24 22 19 18 16 19 17 10 3 1 4 8 8 26 28 29 31 22 20 33 28 16 30 28 19 18 19 19 21 18 15 12
22 18 15 27 29 28 29 30 37 31 29 26 23 22 20 23 24 21 17 13 6 9 12 13 8 12 28 33 33 21 37 31 28 30 31 26 18 21 23 21 21 18 17 16
19 15 12 16 28 30 29 33 37 33 30 27 24 21 19 27 27 21 18 16 14 16 19 21 23 25 23 23 35 37 29 27 32 34 32 29 20 24 23 22 21 20 19 17
14 13 9 7 18 27 28 36 38 34 29 28 25 22 25 25 23 21 17 22 22 25 26 27 27 27 22 30 26 25 29 34 37 25 23 24 26 28 27 24 23 23 21 19
13 13 10 4 9 28 27 36 36 35 32 28 27 26 22 21 21 21 28 24 24 28 27 25 27 23 35 26 27 33 31 32 39 33 29 28 29 26 32 28 25 24 25 24
13 14 11 9 16 20 28 35 35 38 36 33 31 29 27 25 26 32 21 21 19 20 31 31 27 34 33 37 31 27 33 31 31 32 27 30 29 32 32 25 26 27 28 30
14 16 13 12 12 22 27 29 36 39 40 31 34 32 31 28 27 26 24 25 23 23 26 24 37 25 33 28 30 38 29 33 27 29 33 27 28 34 27 29 30 30 33 34
14 16 16 15 15 15 16 24 34 37 41 41 41 38 36 33 32 32 31 29 29 30 30 29 29 29 30 29 29 31 30 31 33 36 32 32 40 35 36 37 36 34 38 39
Wind_Direction
334 335 334 340 341 346 346 348 1 47 139 141 148 151 148 143 160 162 160 166 172 170 178 175 178 180 180 180 185 192 192 197 207 206 212 219 226 229 234 239 243 247 251 257
331 334 335 338 341 347 348 0 24 83 136 152 153 159 167 162 156 153 157 162 168 175 174 172 176 175 175 183 190 190 196 199 204 211 219 225 231 237 241 245 248 250 252 254
330 333 335 339 342 347 351 7 50 139 151 159 158 168 165 155 152 159 157 160 168 170 171 175 178 177 180 189 197 198 206 210 212 217 223 229 234 237 241 244 249 254 243 246
330 332 334 338 342 346 353 20 140 99 190 165 164 170 167 146 153 157 160 159 166 166 169 173 175 176 185 190 195 202 207 212 215 219 224 229 223 222 204 213 219 230 229 250
328 331 334 339 342 347 354 35 157 170 172 172 164 173 152 159 171 159 156 162 164 166 168 170 173 176 180 185 191 198 202 207 215 218 193 193 188 188 205 216 225 235 235 275
325 330 333 332 341 347 353 117 176 185 183 174 165 166 176 173 165 167 167 164 169 171 168 171 175 179 182 184 185 189 197 184 183 173 176 178 187 203 219 231 242 263 290 286
325 329 332 334 339 346 353 145 173 184 168 178 181 166 172 165 162 167 172 166 169 175 171 175 176 181 181 180 182 183 174 172 170 173 182 199 210 217 231 252 253 275 266 256
325 328 332 331 337 344 351 169 171 189 157 185 180 180 178 171 176 179 176 180 174 175 178 180 179 179 179 182 183 167 179 175 186 193 208 216 217 225 237 257 262 264 279 271
324 325 329 332 334 340 348 173 184 187 184 186 180 178 185 186 190 183 188 194 184 182 182 185 186 182 182 187 191 191 187 194 199 198 213 216 230 236 290 244 235 269 258 286
321 325 331 330 335 336 342 256 186 197 206 183 187 183 189 196 211 195 192 194 192 186 189 188 189 190 193 193 193 196 196 198 204 209 213 225 234 248 284 266 232 255 269 280
320 322 325 327 336 333 336 231 170 158 183 200 190 187 194 194 202 201 200 198 197 195 191 192 193 194 200 198 198 201 203 202 212 213 218 227 241 254 288 237 243 242 257 265
314 323 324 325 329 329 330 220 197 191 172 181 200 191 195 200 202 210 208 205 203 201 198 199 196 199 203 207 208 210 213 212 214 215 226 232 242 256 271 241 235 235 241 243
312 319 321 325 324 324 325 192 198 175 183 188 200 204 206 205 209 212 216 215 211 208 204 201 201 201 205 210 211 216 217 219 219 220 237 235 242 252 259 226 228 244 253 241
312 317 320 325 319 320 185 186 199 202 191 170 180 195 206 215 215 216 218 220 216 213 212 209 207 205 207 209 214 217 219 220 222 227 232 240 246 264 242 228 237 257 257 244
316 319 321 320 316 249 180 187 192 179 184 185 191 186 194 203 211 222 215 223 224 219 218 216 211 208 210 210 214 212 216 218 221 223 234 239 252 253 223 219 241 252 263 239
317 315 322 318 315 177 177 182 196 191 197 190 194 187 183 187 182 177 184 189 195 227 224 223 219 212 214 215 212 213 212 219 228 229 236 245 253 249 213 226 242 256 257 244
316 314 321 320 168 165 166 180 182 193 198 189 176 169 156 152 161 172 186 194 196 206 214 224 225 216 216 219 209 214 222 228 226 232 239 246 242 227 219 231 244 260 227 272
314 324 324 161 164 171 179 187 177 186 183 167 154 156 159 163 175 185 189 199 209 216 224 226 224 215 221 216 207 218 221 226 228 232 237 214 204 208 225 235 241 258 237 241
309 328 330 166 169 177 180 174 178 179 165 159 160 160 163 166 172 187 153 171 191 208 219 240 226 211 217 209 214 214 222 222 226 233 220 206 243 218 231 244 240 233 269 239
310 326 337 171 176 175 173 175 174 168 170 172 170 167 176 180 189 164 158 158 141 313 15 14 335 203 190 193 193 215 226 224 228 242 206 197 214 225 238 243 226 231 254 256
324 321 333 181 181 175 174 178 175 176 177 177 181 187 189 170 171 172 159 149 130 82 59 55 52 196 177 179 184 227 188 203 208 207 205 216 219 237 244 239 237 241 245 236
310 312 325 193 185 183 183 180 181 182 185 186 192 194 185 179 173 177 168 160 139 134 128 135 144 155 197 224 177 184 196 212 204 205 201 216 230 242 242 237 240 239 243 249
298 295 309 269 192 194 191 189 188 189 196 194 200 207 182 191 185 186 186 161 156 158 166 157 171 172 179 182 197 206 202 202 203 216 221 227 229 239 241 241 242 246 256 258
275 279 280 191 197 205 209 201 197 195 203 205 206 209 208 214 208 200 182 179 176 175 180 191 183 216 182 204 211 209 213 214 212 217 219 227 235 241 250 242 245 252 258 261
250 260 264 260 203 207 209 210 207 203 205 213 212 211 215 215 213 201 214 220 221 203 189 191 197 193 197 202 211 217 223 231 230 226 231 233 244 243 252 247 255 258 251 254
237 240 240 242 243 213 214 212 218 212 208 224 221 221 219 221 221 226 227 224 225 227 215 220 200 222 212 220 221 219 225 229 230 231 237 242 247 252 250 260 256 258 258 257
241 237 237 233 233 228 231 228 222 221 219 212 218 224 228 227 228 227 229 229 233 232 232 232 233 235 236 237 239 237 237 238 239 241 249 256 252 245 249 251 254 256 267 266